Litchfield, MN

12:10 PM CST on December 17, 2017 (GMT -0600)
Litchfield Municipal

Weather History for KLJF - June, 2012

Change the Weather History Date:

Saturday, June 16, 2012

  Actual Average Record
Temperature  
Mean Temperature 69 °F -  
Max Temperature 78 °F 76 °F 91 °F (1971)
Min Temperature 60 °F 54 °F 42 °F (1972)
Cooling Degree Days 4    
Growing Degree Days 19 (Base 50)    
Moisture  
Dew Point 60 °F    
Average Humidity 72    
Maximum Humidity 94    
Minimum Humidity 36    
Precipitation  
Precipitation 0.00 in - - ()
Sea Level Pressure  
Sea Level Pressure 29.90 in    
Wind  
Wind Speed 4 mph (WNW)    
Max Wind Speed 17 mph    
Max Gust Speed 28 mph    
Visibility 10 miles    
Events      
Averages and records for this station are not official NWS values.
T = Trace of Precipitation, MM = Missing Value Source: NWS Daily Summary

Daily Weather History Graph

Daily Weather History Graph

Search for Another Location

Airport or City:

Trip Planner

Search our weather history database for the weather conditions in past years. The results will help you decide how hot, cold, wet, or windy it might be!

Date:

Astronomy

Jun. 16, 2012 Rise Set
Actual Time 5:30 AM CDT 9:07 PM CDT
Civil Twilight 4:52 AM CDT 9:45 PM CDT
Nautical Twilight 4:02 AM CDT 10:35 PM CDT
Astronomical Twilight 2:56 AM CDT 11:41 PM CDT
Moon 3:24 AM CDT (6/16) 6:40 PM CDT (6/16)
Length of Visible Light 16h 52m
Length of Day
15h 37m
Waning Crescent, 8% of the Moon is Illuminated
Jun 16
Waning Crescent
Jun 19
New
Jun 26
First Quarter
Jul 3
Full
Jul 10
Last Quarter

Hourly Weather History & Observations

Time (CDT) Temp. Dew Point Humidity Pressure Visibility Wind Dir Wind Speed Gust Speed Precip Events Conditions
12:13 AM 66.2 °F 62.6 °F 88% 29.98 in 10.0 mi Calm Calm - N/A   Clear
12:33 AM 64.4 °F 62.6 °F 94% 29.99 in 10.0 mi Calm Calm - N/A   Scattered Clouds
12:53 AM 64.4 °F 62.6 °F 94% 29.99 in 10.0 mi Calm Calm - N/A   Scattered Clouds
1:13 AM 66.2 °F 62.6 °F 88% 29.99 in 5.0 mi Calm Calm - N/A   Scattered Clouds
1:32 AM 66.2 °F 62.6 °F 88% 29.98 in 10.0 mi Calm Calm - N/A   Mostly Cloudy
1:53 AM 66.2 °F 62.6 °F 88% 29.98 in 10.0 mi Calm Calm - N/A   Mostly Cloudy
2:13 AM 66.2 °F 62.6 °F 88% 29.97 in 10.0 mi East 3.5 mph - N/A   Scattered Clouds
2:33 AM 64.4 °F 62.6 °F 94% 29.96 in 10.0 mi NNW 3.5 mph - N/A   Scattered Clouds
2:53 AM 64.4 °F 62.6 °F 94% 29.96 in 10.0 mi Calm Calm - N/A   Clear
3:12 AM 64.4 °F 60.8 °F 88% 29.96 in 10.0 mi Calm Calm - N/A   Clear
3:33 AM 64.4 °F 60.8 °F 88% 29.96 in 10.0 mi Calm Calm - N/A   Clear
3:53 AM 62.6 °F 60.8 °F 94% 29.95 in 10.0 mi North 3.5 mph - N/A   Clear
4:13 AM 62.6 °F 60.8 °F 94% 29.94 in 10.0 mi NNW 3.5 mph - N/A   Clear
4:33 AM 62.6 °F 60.8 °F 94% 29.93 in 10.0 mi NNW 4.6 mph - N/A   Clear
4:53 AM 64.4 °F 60.8 °F 88% 29.92 in 10.0 mi Calm Calm - N/A   Clear
5:12 AM 62.6 °F 60.8 °F 94% 29.93 in 10.0 mi East 5.8 mph - N/A   Clear
5:33 AM 62.6 °F 60.8 °F 94% 29.93 in 10.0 mi East 3.5 mph - N/A   Clear
5:53 AM 62.6 °F 60.8 °F 94% 29.93 in 10.0 mi East 4.6 mph - N/A   Clear
6:13 AM 64.4 °F 62.6 °F 94% 29.91 in 10.0 mi North 3.5 mph - N/A   Clear
6:33 AM 64.4 °F 62.6 °F 94% 29.90 in 10.0 mi NNE 3.5 mph - N/A   Clear
6:53 AM 64.4 °F 62.6 °F 94% 29.91 in 10.0 mi Calm Calm - N/A   Clear
7:13 AM 66.2 °F 62.6 °F 88% 29.91 in 10.0 mi Calm Calm - N/A   Clear
7:33 AM 66.2 °F 62.6 °F 88% 29.91 in 10.0 mi Calm Calm - N/A   Clear
7:53 AM 68.0 °F 64.4 °F 88% 29.92 in 10.0 mi Calm Calm - N/A   Clear
8:13 AM 68.0 °F 64.4 °F 88% 29.93 in 10.0 mi West 3.5 mph - N/A   Mostly Cloudy
8:33 AM 68.0 °F 64.4 °F 88% 29.92 in 10.0 mi Calm Calm - N/A   Mostly Cloudy
8:53 AM 69.8 °F 64.4 °F 83% 29.92 in 10.0 mi Calm Calm - N/A   Mostly Cloudy
9:13 AM 71.6 °F 66.2 °F 83% 29.91 in 10.0 mi Calm Calm - N/A   Scattered Clouds
9:33 AM 71.6 °F 66.2 °F 83% 29.91 in 10.0 mi Calm Calm - N/A   Clear
9:53 AM 73.4 °F 68.0 °F 83% 29.92 in 10.0 mi West 4.6 mph - N/A   Scattered Clouds
10:13 AM 75.2 °F 68.0 °F 78% 29.91 in 10.0 mi West 4.6 mph - N/A   Clear
10:33 AM 75.2 °F 69.8 °F 83% 29.91 in 10.0 mi Calm Calm - N/A   Clear
10:53 AM 77.0 °F 68.0 °F 74% 29.90 in 10.0 mi NW 3.5 mph - N/A   Scattered Clouds
11:13 AM 78.8 °F 68.0 °F 69% 29.90 in 10.0 mi WNW 6.9 mph - N/A   Scattered Clouds
11:33 AM 75.2 °F 69.8 °F 83% 29.90 in 10.0 mi ENE 3.5 mph - N/A   Mostly Cloudy
11:53 AM 75.2 °F 66.2 °F 73% 29.89 in 10.0 mi WNW 6.9 mph - N/A   Mostly Cloudy
12:13 PM 78.8 °F 62.6 °F 57% 29.89 in 10.0 mi WNW 10.4 mph - N/A   Scattered Clouds
12:33 PM 78.8 °F 64.4 °F 61% 29.88 in 10.0 mi WNW 8.1 mph - N/A   Scattered Clouds
12:53 PM 78.8 °F 64.4 °F 61% 29.88 in 10.0 mi WNW 12.7 mph 18.4 mph N/A   Scattered Clouds
1:13 PM 78.8 °F 64.4 °F 61% 29.88 in 10.0 mi WNW 8.1 mph - N/A   Scattered Clouds
1:33 PM 78.8 °F 62.6 °F 57% 29.88 in 10.0 mi West 11.5 mph 17.3 mph N/A   Scattered Clouds
1:53 PM 78.8 °F 62.6 °F 57% 29.87 in 10.0 mi WNW 12.7 mph 19.6 mph N/A   Scattered Clouds
2:12 PM 78.8 °F 62.6 °F 57% 29.87 in 10.0 mi West 12.7 mph 18.4 mph N/A   Scattered Clouds
2:33 PM 77.0 °F 62.6 °F 61% 29.86 in 10.0 mi WNW 12.7 mph 17.3 mph N/A   Mostly Cloudy
2:53 PM 75.2 °F 62.6 °F 65% 29.86 in 10.0 mi WNW 16.1 mph 23.0 mph N/A   Scattered Clouds
3:13 PM 75.2 °F 64.4 °F 69% 29.87 in 10.0 mi WNW 13.8 mph 21.9 mph N/A   Scattered Clouds
3:33 PM 73.4 °F 64.4 °F 73% 29.86 in 10.0 mi WNW 17.3 mph 24.2 mph N/A   Scattered Clouds
3:53 PM 71.6 °F 62.6 °F 73% 29.86 in 10.0 mi WNW 13.8 mph 20.7 mph N/A   Scattered Clouds
4:12 PM 73.4 °F 62.6 °F 69% 29.86 in 10.0 mi WNW 12.7 mph 20.7 mph N/A   Scattered Clouds
4:33 PM 73.4 °F 59.0 °F 61% 29.86 in 10.0 mi WNW 17.3 mph 27.6 mph N/A   Scattered Clouds
4:53 PM 73.4 °F 57.2 °F 57% 29.86 in 10.0 mi NW 13.8 mph 25.3 mph N/A   Scattered Clouds
5:13 PM 73.4 °F 59.0 °F 61% 29.85 in 10.0 mi WNW 11.5 mph 23.0 mph N/A   Clear
5:33 PM 75.2 °F 55.4 °F 50% 29.85 in 10.0 mi WNW 12.7 mph 21.9 mph N/A   Scattered Clouds
5:53 PM 75.2 °F 53.6 °F 47% 29.84 in 10.0 mi WNW 13.8 mph 21.9 mph N/A   Scattered Clouds
6:13 PM 75.2 °F 50.0 °F 41% 29.84 in 10.0 mi WNW 15.0 mph 21.9 mph N/A   Scattered Clouds
6:33 PM 75.2 °F 51.8 °F 44% 29.84 in 10.0 mi West 13.8 mph 20.7 mph N/A   Clear
6:53 PM 75.2 °F 51.8 °F 44% 29.84 in 10.0 mi West 11.5 mph 17.3 mph N/A   Clear
7:13 PM 75.2 °F 46.4 °F 36% 29.84 in 10.0 mi West 12.7 mph 20.7 mph N/A   Clear
7:33 PM 75.2 °F 46.4 °F 36% 29.85 in 10.0 mi WNW 8.1 mph 19.6 mph N/A   Clear
7:53 PM 73.4 °F 44.6 °F 36% 29.85 in 10.0 mi NW 15.0 mph 21.9 mph N/A   Clear
8:13 PM 71.6 °F 46.4 °F 41% 29.85 in 10.0 mi WNW 10.4 mph 16.1 mph N/A   Clear
8:33 PM 71.6 °F 46.4 °F 41% 29.86 in 10.0 mi WNW 9.2 mph - N/A   Clear
8:53 PM 69.8 °F 48.2 °F 46% 29.86 in 10.0 mi WNW 9.2 mph - N/A   Clear
9:13 PM 69.8 °F 48.2 °F 46% 29.87 in 10.0 mi WNW 9.2 mph - N/A   Clear
9:33 PM 69.8 °F 48.2 °F 46% 29.88 in 10.0 mi WNW 8.1 mph - N/A   Clear
9:53 PM 68.0 °F 48.2 °F 49% 29.88 in 10.0 mi WNW 6.9 mph - N/A   Scattered Clouds
10:13 PM 64.4 °F 51.8 °F 64% 29.89 in 10.0 mi Calm Calm - N/A   Scattered Clouds
10:33 PM 64.4 °F 51.8 °F 64% 29.90 in 10.0 mi West 4.6 mph - N/A   Clear
10:53 PM 64.4 °F 51.8 °F 64% 29.90 in 10.0 mi West 3.5 mph - N/A   Clear
11:33 PM 60.8 °F 53.6 °F 77% 29.90 in 10.0 mi Calm Calm - N/A   Clear
11:53 PM 60.8 °F 51.8 °F 72% 29.90 in 10.0 mi West 3.5 mph - N/A   Clear